Tiempo cada hora Abanto

Hoy, 29 Octubre, Jueves

Tiempo Temperatura Precipitaciones Viento Presión Humedad
00:00 +8°C° 0 mm 2 mps 686 mmHg 89%
01:00 +8°C° 0 mm 2 mps 686 mmHg 89%
02:00 +9°C° 0 mm 1 mps 685 mmHg 90%
03:00 +8°C° 0 mm 1 mps 685 mmHg 90%
04:00 +8°C° 0 mm 1 mps 685 mmHg 91%
05:00 +7°C° 0 mm 1 mps 686 mmHg 92%
06:00 +7°C° 0 mm 1 mps 686 mmHg 92%
07:00 +9°C° 0 mm 1 mps 687 mmHg 85%
08:00 +10°C° 0 mm 1 mps 687 mmHg 78%
09:00 +12°C° 0 mm 1 mps 688 mmHg 72%
10:00 +14°C° 0 mm 1 mps 688 mmHg 63%
11:00 +15°C° 0 mm 1 mps 688 mmHg 55%
12:00 +18°C° 0 mm 1 mps 688 mmHg 47%
13:00 +19°C° 0 mm 1 mps 688 mmHg 43%
14:00 +19°C° 0 mm 2 mps 688 mmHg 40%
15:00 +19°C° 0 mm 2 mps 688 mmHg 37%
16:00 +17°C° 0 mm 2 mps 687 mmHg 44%
17:00 +15°C° 0 mm 2 mps 687 mmHg 52%
18:00 +13°C° 0 mm 2 mps 687 mmHg 59%
19:00 +12°C° 0 mm 2 mps 687 mmHg 61%
20:00 +12°C° 0 mm 1 mps 687 mmHg 63%
21:00 +11°C° 0 mm 1 mps 687 mmHg 64%
22:00 +10°C° 0 mm 1 mps 687 mmHg 65%
23:00 +10°C° 0 mm 1 mps 687 mmHg 67%

Mañana, 30 Octubre, Viernes

Tiempo Temperatura Precipitaciones Viento Presión Humedad
00:00 +9°C° 0 mm 1 mps 686 mmHg 68%
01:00 +9°C° 0 mm 1 mps 686 mmHg 68%
02:00 +9°C° 0 mm 1 mps 686 mmHg 68%
03:00 +9°C° 0 mm 1 mps 686 mmHg 68%
04:00 +8°C° 0 mm 1 mps 686 mmHg 69%
05:00 +8°C° 0 mm 1 mps 686 mmHg 70%
06:00 +8°C° 0 mm 1 mps 686 mmHg 71%
07:00 +10°C° 0 mm 1 mps 686 mmHg 63%
08:00 +12°C° 0 mm 1 mps 687 mmHg 54%
09:00 +14°C° 0 mm 1 mps 688 mmHg 45%
10:00 +16°C° 0 mm 1 mps 688 mmHg 40%
11:00 +18°C° 0 mm 2 mps 688 mmHg 35%
12:00 +20°C° 0 mm 2 mps 688 mmHg 30%
13:00 +20°C° 0 mm 2 mps 688 mmHg 30%
14:00 +21°C° 0 mm 2 mps 688 mmHg 29%
15:00 +23°C° 0 mm 2 mps 687 mmHg 28%
16:00 +19°C° 0 mm 2 mps 687 mmHg 35%
17:00 +17°C° 0 mm 2 mps 687 mmHg 43%
18:00 +14°C° 0 mm 1 mps 686 mmHg 50%
19:00 +14°C° 0 mm 1 mps 686 mmHg 52%
20:00 +13°C° 0 mm 1 mps 686 mmHg 54%
21:00 +13°C° 0 mm 1 mps 686 mmHg 55%
22:00 +12°C° 0 mm 1 mps 686 mmHg 56%
23:00 +12°C° 0 mm 1 mps 686 mmHg 57%

Pasado mañana, 31 Octubre, Sábado

Tiempo Temperatura Precipitaciones Viento Presión Humedad
00:00 +12°C° 0 mm 1 mps 686 mmHg 58%
01:00 +11°C° 0 mm 1 mps 685 mmHg 59%
02:00 +11°C° 0 mm 1 mps 685 mmHg 60%
03:00 +11°C° 0 mm 1 mps 685 mmHg 62%
04:00 +10°C° 0 mm 1 mps 685 mmHg 63%
05:00 +10°C° 0 mm 1 mps 685 mmHg 64%
06:00 +10°C° 0 mm 1 mps 685 mmHg 65%
07:00 +12°C° 0 mm 1 mps 686 mmHg 57%
08:00 +14°C° 0 mm 1 mps 686 mmHg 50%
09:00 +16°C° 0 mm 1 mps 687 mmHg 43%
10:00 +18°C° 0 mm 2 mps 687 mmHg 41%
11:00 +19°C° 0 mm 2 mps 687 mmHg 38%
12:00 +20°C° 0 mm 3 mps 687 mmHg 36%
13:00 +21°C° 0 mm 3 mps 687 mmHg 34%
14:00 +21°C° 0 mm 3 mps 687 mmHg 33%
15:00 +22°C° 0 mm 3 mps 686 mmHg 31%
16:00 +19°C° 0 mm 2 mps 686 mmHg 38%
17:00 +17°C° 0 mm 2 mps 686 mmHg 45%
18:00 +15°C° 0 mm 1 mps 685 mmHg 51%
19:00 +14°C° 0 mm 2 mps 685 mmHg 53%
20:00 +14°C° 0 mm 2 mps 686 mmHg 55%
21:00 +13°C° 0 mm 2 mps 686 mmHg 57%
22:00 +13°C° 0 mm 1 mps 686 mmHg 59%
23:00 +12°C° 0 mm 1 mps 685 mmHg 60%

1 Noviembre, Domingo

Tiempo Temperatura Precipitaciones Viento Presión Humedad
00:00 +12°C° 0 mm 1 mps 685 mmHg 62%
01:00 +12°C° 0 mm 1 mps 685 mmHg 63%
02:00 +11°C° 0 mm 1 mps 685 mmHg 64%
03:00 +11°C° 0 mm 1 mps 685 mmHg 64%
04:00 +11°C° 0 mm 1 mps 685 mmHg 65%
05:00 +10°C° 0 mm 1 mps 685 mmHg 66%
06:00 +10°C° 0 mm 1 mps 685 mmHg 67%
07:00 +12°C° 0 mm 1 mps 685 mmHg 61%
08:00 +14°C° 0 mm 2 mps 686 mmHg 55%
09:00 +16°C° 0 mm 2 mps 686 mmHg 49%
10:00 +17°C° 0 mm 2 mps 686 mmHg 46%
11:00 +19°C° 0 mm 3 mps 686 mmHg 43%
12:00 +20°C° 0 mm 3 mps 686 mmHg 40%
13:00 +21°C° 0 mm 3 mps 686 mmHg 39%
14:00 +21°C° 0 mm 4 mps 686 mmHg 39%
15:00 +21°C° 0 mm 4 mps 686 mmHg 39%
16:00 +20°C° 0 mm 4 mps 685 mmHg 44%
17:00 +18°C° 0 mm 3 mps 685 mmHg 50%
18:00 +16°C° 0 mm 3 mps 685 mmHg 55%
19:00 +16°C° 0 mm 3 mps 685 mmHg 58%
20:00 +14°C° 0 mm 3 mps 685 mmHg 60%
21:00 +14°C° 0 mm 3 mps 685 mmHg 63%
22:00 +13°C° 0 mm 3 mps 684 mmHg 64%
23:00 +14°C° 0 mm 2 mps 684 mmHg 66%

2 Noviembre, Lunes

Tiempo Temperatura Precipitaciones Viento Presión Humedad
00:00 +13°C° 0 mm 2 mps 684 mmHg 67%
01:00 +13°C° 0 mm 2 mps 684 mmHg 68%
02:00 +13°C° 0 mm 2 mps 683 mmHg 69%
03:00 +12°C° 0 mm 2 mps 683 mmHg 70%
04:00 +12°C° 0 mm 2 mps 683 mmHg 72%
05:00 +12°C° 0 mm 2 mps 683 mmHg 74%
06:00 +12°C° 0 mm 2 mps 683 mmHg 76%
07:00 +12°C° 0 mm 3 mps 683 mmHg 70%
08:00 +14°C° 0 mm 4 mps 684 mmHg 65%
09:00 +16°C° 0 mm 5 mps 684 mmHg 59%
10:00 +17°C° 0 mm 6 mps 684 mmHg 55%
11:00 +19°C° 0 mm 6 mps 685 mmHg 51%
12:00 +20°C° 0 mm 7 mps 685 mmHg 47%
13:00 +20°C° 0 mm 6 mps 684 mmHg 48%
14:00 +20°C° 0 mm 6 mps 684 mmHg 49%
15:00 +20°C° 0 mm 5 mps 683 mmHg 50%
16:00 +19°C° 0 mm 4 mps 683 mmHg 54%
17:00 +18°C° 0 mm 3 mps 683 mmHg 58%
18:00 +16°C° 0 mm 2 mps 683 mmHg 63%
19:00 +16°C° 0 mm 2 mps 683 mmHg 64%
20:00 +16°C° 0 mm 3 mps 683 mmHg 64%
21:00 +14°C° 0 mm 3 mps 683 mmHg 65%
22:00 +14°C° 0 mm 3 mps 683 mmHg 66%
23:00 +14°C° 0 mm 3 mps 683 mmHg 66%

3 Noviembre, Martes

Tiempo Temperatura Precipitaciones Viento Presión Humedad
00:00 +14°C° 0 mm 3 mps 683 mmHg 66%
01:00 +15°C° 0.1 mm 2 mps 683 mmHg 70%
02:00 +15°C° 0.1 mm 2 mps 682 mmHg 74%
03:00 +14°C° 0.1 mm 1 mps 682 mmHg 78%
04:00 +14°C° 1.9 mm 1 mps 682 mmHg 83%
05:00 +13°C° 1.9 mm 2 mps 682 mmHg 89%
06:00 +12°C° 1.9 mm 2 mps 682 mmHg 94%
07:00 +11°C° 2.5 mm 3 mps 683 mmHg 93%
08:00 +10°C° 2.5 mm 3 mps 683 mmHg 92%
09:00 +8°C° 2.5 mm 4 mps 683 mmHg 91%
10:00 +8°C° 0.9 mm 4 mps 683 mmHg 88%
11:00 +8°C° 0.9 mm 4 mps 683 mmHg 85%
12:00 +8°C° 0.9 mm 4 mps 683 mmHg 82%
13:00 +8°C° 0.2 mm 4 mps 683 mmHg 80%
14:00 +8°C° 0.2 mm 4 mps 683 mmHg 78%
15:00 +8°C° 0.2 mm 4 mps 684 mmHg 77%
16:00 +8°C° 0 mm 4 mps 684 mmHg 77%
17:00 +7°C° 0 mm 4 mps 684 mmHg 77%
18:00 +7°C° 0 mm 4 mps 684 mmHg 77%
19:00 +6°C° 0 mm 4 mps 684 mmHg 75%
20:00 +6°C° 0 mm 5 mps 685 mmHg 73%
21:00 +5°C° 0 mm 5 mps 685 mmHg 71%
22:00 +5°C° 0 mm 4 mps 685 mmHg 69%
23:00 +5°C° 0 mm 4 mps 685 mmHg 68%
Mostrar más

Necesitamos Su Consentimiento

Meteoprog y nuestros Proveedores de Servicios pueden almacenar y acceder a sus datos personales como cookies, identificadores de dispositivo u otras tecnologías similares de su dispositivo y procesar dichos datos para personalizar contenido y anuncios, además de ofrecer funciones de redes sociales y analizar el tráfico.

  • Almacenar y/o acceder a información en su dispositivo

    Se puede almacenar o acceder a cookies, identificadores de dispositivo u otra información de su dispositivo para los fines anteriormente indicados.

  • Anuncios y contenido personalizados, medición de anuncios y contenido, percepciones del público, y desarrollo de productos

    Los anuncios y el contenido pueden personalizarse en base a su perfil. Se pueden añadir más datos para personalizar mejor los anuncios y contenidos. Se puede medir el rendimiento de los anuncios y contenidos. Se puede obtener la percepción sobre el público que ha visto los anuncios y contenidos. Dichos datos pueden usarse para desarrollar o mejorar la experiencia del usuario, sistemas y software.

Al hacer clic en ‘Estoy De Acuerdo’ usted permitirá el uso de las cookies, identificadores de dispositivo, balizas web u otras tecnologías similares indicadas. Su configuración puede cambiarse desde el navegador de su dispositivo.

Para ciertos fines, los intereses legítimos pueden ser considerados por encima del consentimiento. Puede leer más sobre ello en nuestra Política de Privacidad y Cookies.